Location: ?ejkovice
(49.0137°N, 14.3821°E)
Time: 22:56:37
(UTC+00:00)

Cosmos 968 Rocket - Pass Details

Date: 13 August 2024
Orbit: 738 x 767 km, 74.0° (Epoch: 08 September)

Event Time Altitude Azimuth Distance (km) Brightness Sun altitude
Rises 19:36:15 0° 333° (NNW) 3,223 8.0 -11.4°
Reaches altitude 10° 19:38:40 10° 330° (NNW) 2,289 7.2 -11.7°
Maximum altitude 19:43:45 59° 252° (WSW) 868 4.0 -12.4°
Drops below altitude 10° 19:48:45 10° 174° (S) 2,254 5.5 -13.0°
Enters shadow 19:48:56 - 174° (S) 2,326 5.6 -13.0°
